Tracking 19485 objects as of 22-Jan-2019
HD Live streaming from Space Station
objects crossing your sky now

FLOCK 1C 10

Track FLOCK 1C 10 now!
10-day predictions
FLOCK 1C 10 is classified as:


NORAD ID: 40023
Int'l Code: 2014-033P
Perigee: 597.9 km
Apogee: 615.1 km
Inclination: 97.9 °
Period: 96.7 minutes
Semi major axis: 6977 km
RCS: Unknown
Launch date: June 19, 2014
Source: United States (US)
Launch site: Orenburg, Russia (OREN)
aabbcc
Your satellite tracking list
Your tracking list is empty




NASA's NSSDC Master Catalog

Two Line Element Set (TLE):
1 40023U 14033P   19020.82541843 +.00000334 +00000-0 +40967-4 0  9997
2 40023 097.9219 303.2794 0012331 184.3718 175.7394 14.89552414249215
Source of the keplerian elements: Caltech